| time (UTC) | temp F | wind direction | speed MPH | gust MPH | rain 1hr in | rain 24hr in | rain mn in | humidity % | barometer mb |
| 20260503050803 | 52 | 123 | 0.0 | 3.0 | 0.00 | 0.00 | 0.00 | 77 | 1018.6 |
| 20260503050302 | 52 | 355 | 0.0 | 3.0 | 0.00 | 0.00 | 0.00 | 77 | 1018.6 |
| 20260503040303 | 52 | 308 | 1.0 | 3.0 | 0.00 | 0.00 | 0.00 | 76 | 1018.5 |
| 20260503030803 | 52 | 59 | 0.0 | 0.0 | 0.00 | 0.00 | 0.00 | 78 | 1018.5 |
| 20260503030303 | 52 | 86 | 1.0 | 3.0 | 0.00 | 0.00 | 0.00 | 78 | 1018.5 |
| 20260503020803 | 54 | 84 | 1.0 | 2.0 | 0.00 | 0.00 | 0.00 | 74 | 1018.5 |
| 20260503020302 | 54 | 23 | 1.0 | 2.0 | 0.00 | 0.00 | 0.00 | 74 | 1018.5 |
| 20260503010804 | 55 | 24 | 0.0 | 1.0 | 0.00 | 0.00 | 0.00 | 73 | 1018.5 |
| 20260503000804 | 56 | 47 | 0.0 | 1.0 | 0.00 | 0.00 | 0.00 | 71 | 1018.5 |
| 20260503000304 | 56 | 46 | 0.0 | 2.0 | 0.00 | 0.00 | 0.00 | 71 | 1018.5 |
| 20260502230804 | 57 | 5 | 0.0 | 1.0 | 0.00 | 0.00 | 0.00 | 69 | 1018.5 |
| 20260502220803 | 59 | 350 | 0.0 | 1.0 | 0.00 | 0.00 | 0.00 | 67 | 1018.5 |
| 20260502210803 | 60 | 327 | 0.0 | 1.0 | 0.00 | 0.00 | 0.00 | 65 | 1018.5 |
| 20260502210303 | 61 | 332 | 0.0 | 3.0 | 0.00 | 0.00 | 0.00 | 62 | 1018.5 |
| 20260502200803 | 63 | 94 | 1.0 | 3.0 | 0.00 | 0.00 | 0.00 | 57 | 1018.5 |
| 20260502200304 | 63 | 71 | 2.0 | 5.0 | 0.00 | 0.00 | 0.00 | 58 | 1018.5 |
| 20260502190804 | 65 | 355 | 1.0 | 2.0 | 0.00 | 0.00 | 0.00 | 50 | 1018.5 |
| 20260502190304 | 66 | 17 | 1.0 | 3.0 | 0.00 | 0.00 | 0.00 | 50 | 1018.5 |
| 20260502180804 | 69 | 340 | 1.0 | 3.0 | 0.00 | 0.00 | 0.00 | 44 | 1018.5 |
| 20260502170304 | 72 | 268 | 2.0 | 12.0 | 0.00 | 0.00 | 0.00 | 39 | 1018.5 |
| 20260502160802 | 74 | 284 | 5.0 | 10.0 | 0.00 | 0.00 | 0.00 | 36 | 1018.5 |
| 20260502160301 | 75 | 263 | 5.0 | 14.0 | 0.00 | 0.00 | 0.00 | 35 | 1018.5 |
| 20260502150802 | 76 | 248 | 2.0 | 9.0 | 0.00 | 0.00 | 0.00 | 34 | 1018.4 |
| 20260502150302 | 76 | 251 | 5.0 | 13.0 | 0.00 | 0.00 | 0.00 | 33 | 1018.4 |
| 20260502130302 | 75 | 242 | 6.0 | 12.0 | 0.00 | 0.00 | 0.00 | 33 | 1018.4 |
| 20260502120302 | 74 | 233 | 3.0 | 13.0 | 0.00 | 0.00 | 0.00 | 33 | 1018.4 |
| 20260502110302 | 71 | 227 | 6.0 | 12.0 | 0.00 | 0.00 | 0.00 | 41 | 1018.4 |
| 20260502100803 | 70 | 254 | 2.0 | 8.0 | 0.00 | 0.00 | 0.00 | 43 | 1018.4 |
| 20260502090803 | 64 | 257 | 2.0 | 6.0 | 0.00 | 0.00 | 0.00 | 50 | 1018.4 |
| 20260502090303 | 64 | 216 | 2.0 | 6.0 | 0.00 | 0.00 | 0.00 | 49 | 1018.3 |
| 20260502070803 | 55 | 146 | 1.0 | 2.0 | 0.00 | 0.00 | 0.00 | 69 | 1018.4 |
| 20260502070303 | 55 | 197 | 0.0 | 2.0 | 0.00 | 0.00 | 0.00 | 71 | 1018.4 |
| 20260502060303 | 51 | 136 | 1.0 | 2.0 | 0.00 | 0.00 | 0.00 | 79 | 1018.4 |